Location: Kalberh�ni
(46.4610°N, 7.2453°E)
Time: 21:10:29
(UTC+00:00)

Cosmos 1802 Rocket - Pass Details

Date: 01 November 2021
Orbit: 955 x 1010 km, 82.9° (Epoch: 30 November)

Event Time Altitude Azimuth Distance (km) Brightness Sun altitude
Rises 16:54:27 0° 142° (SE) 3,622 6.7 -7.2°
Reaches altitude 10° 16:57:35 10° 126° (SE) 2,683 5.9 -7.7°
Maximum altitude 17:01:53 20° 81° (E) 2,042 5.1 -8.4°
Drops below altitude 10° 17:06:14 10° 36° (NE) 2,711 5.9 -9.2°
Sets 17:09:23 0° 21° (NNE) 3,671 6.7 -9.7°
